Flag for U.S.A. Weather past 2 weeks in Bristol, Tennessee, U.S.A.

Now
33 °F

Sunny.


Feels Like: 33 °F
Forecast: 27 / 52 °F
Wind: No wind

Location: Abingdon-Southwest Abingdon

Current Time: Dec 26, 2014 at 9:32:15 AM

Latest Report: Dec 26, 2014 at 8:55 AM


Visibility: 10 mi

Pressure: 30.31 "Hg

Humidity: 92%

Dew point: 31 °F

Location of BristolLocation

Historic Weather in Bristol — Graph

°F

Bristol temperature yesterday

Maximum temperature yesterday: 46 °F (at 2:35 PM)
Minimum temperature yesterday: 31 °F (at 10:55 PM)
Average temperature yesterday: 40 °F

Past Weeks' High & Low Weather Summary

 TemperatureHumidityPressure
High64 °F (Dec 24, 6:15 PM)100% (Dec 21, 8:35 AM)30.32 "Hg (Dec 21, 8:35 AM)
Low23 °F (Dec 12, 6:55 AM)30% (Dec 15, 2:35 PM)29.54 "Hg (Dec 24, 4:35 PM)
Average40 °F77%30.08 "Hg
* Reported Dec 11 8:15 AM — Dec 26 8:15 AM, Bristol, Weather by CustomWeather, © 2014

Note: Actual official high and low records may vary slightly from our data, if they occured in-between our weather recording intervals... More about our weather records

Advertising

Bristol weather history for previous 24 hours

 ConditionsComfort  
Time TempWeatherWind HumidityBarometerVisibility
8:15 AM
Dec 26
30 °FSunny.No wind94%30.30 "Hg10 mi
7:55 AM30 °FSunny.No wind95%30.30 "Hg10 mi
7:35 AM28 °FClear.6 mph93%30.30 "Hg10 mi
7:15 AM30 °FClear.No wind93%30.30 "Hg10 mi
6:55 AM31 °FClear.No wind93%30.28 "Hg10 mi
6:35 AM31 °FClear.5 mph95%30.27 "Hg10 mi
6:15 AM30 °FClear.No wind95%30.28 "Hg10 mi
5:55 AM29 °FClear.5 mph94%30.27 "Hg10 mi
5:35 AM28 °FClear.3 mph93%30.27 "Hg10 mi
5:15 AM30 °FClear.No wind93%30.26 "Hg10 mi
4:55 AM31 °FClear.No wind89%30.26 "Hg10 mi
4:35 AM31 °FClear.No wind91%30.25 "Hg10 mi
4:15 AM31 °FClear.No wind92%30.25 "Hg10 mi
3:55 AM32 °FClear.No wind92%30.24 "Hg10 mi
3:35 AM32 °FClear.3 mph95%30.25 "Hg10 mi
3:15 AM31 °FClear.5 mph94%30.25 "Hg10 mi
2:55 AM30 °FClear.6 mph95%30.25 "Hg10 mi
2:35 AM29 °FClear.6 mph94%30.25 "Hg10 mi
2:15 AM30 °FClear.No wind93%30.25 "Hg10 mi
1:55 AM30 °FClear.No wind94%30.25 "Hg10 mi
1:15 AM31 °FClear.No wind94%30.23 "Hg10 mi
12:55 AM30 °FClear.No wind93%30.24 "Hg10 mi
12:15 AM32 °FClear.No wind92%30.22 "Hg10 mi
11:55 PM
Dec 25
31 °FClear.No wind93%30.22 "Hg10 mi
11:35 PM32 °FClear.No wind92%30.23 "Hg10 mi
11:15 PM32 °FClear.No wind92%30.23 "Hg10 mi
10:55 PM31 °FClear.No wind90%30.25 "Hg10 mi
10:35 PM32 °FClear.No wind90%30.24 "Hg10 mi
9:55 PM32 °FClear.No wind90%30.23 "Hg10 mi
9:15 PM34 °FClear.No wind91%30.23 "Hg10 mi
8:55 PM34 °FClear.No wind87%30.24 "Hg10 mi
8:35 PM35 °FClear.No wind84%30.25 "Hg10 mi
8:15 PM35 °FClear.No wind84%30.25 "Hg10 mi
7:55 PM36 °FClear.No wind80%30.26 "Hg10 mi
7:15 PM38 °FClear.3 mph77%30.25 "Hg10 mi
6:55 PM37 °FClear.No wind80%30.23 "Hg10 mi
6:35 PM39 °FClear.No wind73%30.20 "Hg10 mi
6:15 PM40 °FClear.3 mph68%30.19 "Hg10 mi
5:55 PM41 °FClear.No wind65%30.18 "Hg10 mi
5:15 PM42 °FSunny.6 mph62%30.17 "Hg10 mi
4:55 PM44 °FSunny.7 mph61%30.15 "Hg10 mi
4:15 PM45 °FSunny.5 mph59%30.14 "Hg10 mi
3:55 PM45 °FSunny.8 mph58%30.14 "Hg10 mi
3:35 PM45 °FScattered clouds.6 mph58%30.14 "Hg10 mi
3:15 PM45 °FPartly sunny.5 mph59%30.14 "Hg10 mi
2:55 PM46 °FOvercast.7 mph58%30.15 "Hg10 mi
2:35 PM46 °FPartly sunny.8 mph58%30.15 "Hg10 mi
2:15 PM45 °FOvercast.6 mph58%30.15 "Hg10 mi
1:55 PM44 °FOvercast.7 mph62%30.15 "Hg10 mi
1:35 PM44 °FOvercast.9 mph64%30.14 "Hg10 mi
1:15 PM43 °FOvercast.9 mph64%30.14 "Hg10 mi
12:55 PM43 °FOvercast.12 mph66%30.14 "Hg10 mi
12:35 PM43 °FOvercast.10 mph67%30.14 "Hg10 mi
12:15 PM43 °FMore clouds than sun.7 mph66%30.13 "Hg10 mi
11:55 AM42 °FMostly cloudy.13 mph66%30.14 "Hg10 mi
11:35 AM42 °FCloudy.12 mph70%30.14 "Hg10 mi
11:15 AM41 °FCloudy.12 mph70%30.14 "Hg10 mi
10:15 AM40 °FOvercast.9 mph73%30.12 "Hg10 mi
9:55 AM40 °FOvercast.10 mph75%30.11 "Hg10 mi
9:35 AM39 °FOvercast.9 mph76%30.10 "Hg10 mi
9:15 AM39 °FOvercast.9 mph76%30.09 "Hg10 mi
Weather by CustomWeather, © 2014

See weather overviewHow to use our weather pages